Tillamook, OR

2:53 AM PST on February 09, 2016 (GMT -0800)
Tillamook

Weather History for KTMK - June, 2014

Change the Weather History Date:

Wednesday, June 18, 2014

  Actual Average (KMMV) Record (KMMV)
Temperature  
Mean Temperature 57 °F 60 °F  
Max Temperature 64 °F 73 °F 98 °F (1982)
Min Temperature 50 °F 47 °F 35 °F (1930)
Degree Days  
Heating Degree Days 8 5  
Month to date heating degree days 118  
Since 1 July heating degree days 4820  
Cooling Degree Days 0 0  
Month to date cooling degree days 0  
Year to date cooling degree days 6  
Growing Degree Days 7 (Base 50)    
Moisture  
Dew Point 49 °F    
Average Humidity 76    
Maximum Humidity 100    
Minimum Humidity 52    
Precipitation  
Precipitation 0.00 in 0.05 in 0.63 in (1937)
Month to date precipitation 1.03  
Year to date precipitation 20.75  
Sea Level Pressure  
Sea Level Pressure 30.13 in    
Wind  
Wind Speed 3 mph (WNW)    
Max Wind Speed 10 mph    
Max Gust Speed 18 mph    
Visibility 10 miles    
Events      
T = Trace of Precipitation, MM = Missing Value Source: NWS Daily Summary

Daily Weather History Graph

Daily Weather History Graph

Search for Another Location

Airport or City:

Trip Planner

Search our weather history database for the weather conditions in past years. The results will help you decide how hot, cold, wet, or windy it might be!

Date:

Astronomy

Jun. 18, 2014 Rise Set
Actual Time 6:26 AM MDT 10:06 PM MDT
Civil Twilight 5:48 AM MDT 10:44 PM MDT
Nautical Twilight 4:57 AM MDT 11:35 PM MDT
Astronomical Twilight 3:49 AM MDT 12:43 AM MDT
Moon 1:22 AM MDT (6/18) 1:13 PM MDT (6/18)
Length of Visible Light 16h 56m
Length of Day
15h 40m
Waning Gibbous, 62% of the Moon is Illuminated
Jun 18
Waning Gibbous
Jun 19
Last Quarter
Jun 27
New
Jul 5
First Quarter
Jul 12
Full

Hourly Weather History & Observations

Time (MDT) Temp. Dew Point Humidity Pressure Visibility Wind Dir Wind Speed Gust Speed Precip Events Conditions
12:15 AM 51.8 °F 50.0 °F 94% 30.21 in 10.0 mi ESE 3.5 mph - N/A   Overcast
12:35 AM 51.8 °F 50.0 °F 94% 30.20 in 10.0 mi SE 3.5 mph - N/A   Overcast
12:55 AM 51.8 °F 50.0 °F 94% 30.20 in 10.0 mi Calm Calm - N/A   Overcast
1:15 AM 50.0 °F 50.0 °F 100% 30.20 in 10.0 mi Calm Calm - N/A   Overcast
1:35 AM 51.8 °F 50.0 °F 94% 30.19 in 10.0 mi Calm Calm - N/A   Overcast
1:55 AM 50.0 °F 50.0 °F 100% 30.19 in 10.0 mi Calm Calm - N/A   Overcast
2:15 AM 51.8 °F 50.0 °F 94% 30.19 in 10.0 mi Calm Calm - N/A   Overcast
2:35 AM 50.0 °F 50.0 °F 100% 30.18 in 10.0 mi Calm Calm - N/A   Overcast
2:55 AM 50.0 °F 50.0 °F 100% 30.18 in 10.0 mi Calm Calm - N/A   Overcast
3:15 AM 50.0 °F 50.0 °F 100% 30.18 in 10.0 mi Calm Calm - N/A   Overcast
3:35 AM 51.8 °F 50.0 °F 94% 30.17 in 10.0 mi Calm Calm - N/A   Overcast
3:55 AM 51.8 °F 50.0 °F 94% 30.17 in 10.0 mi Calm Calm - N/A   Overcast
4:15 AM 51.8 °F 50.0 °F 94% 30.17 in 10.0 mi SE 3.5 mph - N/A   Overcast
4:35 AM 51.8 °F 50.0 °F 94% 30.17 in 10.0 mi Calm Calm - N/A   Overcast
4:55 AM 51.8 °F 50.0 °F 94% 30.17 in 10.0 mi Calm Calm - N/A   Overcast
5:15 AM 51.8 °F 50.0 °F 94% 30.16 in 10.0 mi Calm Calm - N/A   Overcast
5:35 AM 51.8 °F 50.0 °F 94% 30.16 in 10.0 mi Calm Calm - N/A   Overcast
5:55 AM 51.8 °F 50.0 °F 94% 30.16 in 10.0 mi SE 3.5 mph - N/A   Overcast
6:15 AM 51.8 °F 50.0 °F 94% 30.15 in 10.0 mi Calm Calm - N/A   Overcast
6:35 AM 51.8 °F 50.0 °F 94% 30.15 in 10.0 mi Calm Calm - N/A   Overcast
6:55 AM 51.8 °F 50.0 °F 94% 30.15 in 10.0 mi Calm Calm - N/A   Overcast
7:15 AM 51.8 °F 50.0 °F 94% 30.14 in 10.0 mi Calm Calm - N/A   Mostly Cloudy
7:35 AM 51.8 °F 50.0 °F 94% 30.15 in 10.0 mi Calm Calm - N/A   Mostly Cloudy
8:15 AM 51.8 °F 51.8 °F 100% 30.15 in 10.0 mi Calm Calm - N/A   Overcast
8:35 AM 51.8 °F 50.0 °F 94% 30.15 in 10.0 mi Calm Calm - N/A   Overcast
8:55 AM 53.6 °F 50.0 °F 88% 30.16 in 10.0 mi Calm Calm - N/A   Overcast
9:15 AM 53.6 °F 50.0 °F 88% 30.16 in 10.0 mi Calm Calm - N/A   Overcast
9:35 AM 53.6 °F 50.0 °F 88% 30.16 in 10.0 mi Calm Calm - N/A   Overcast
9:55 AM 55.4 °F 50.0 °F 82% 30.15 in 10.0 mi Calm Calm - N/A   Mostly Cloudy
10:15 AM 59.0 °F 50.0 °F 72% 30.14 in 10.0 mi Calm Calm - N/A   Scattered Clouds
10:35 AM 59.0 °F 42.8 °F 55% 30.14 in 10.0 mi North 3.5 mph - N/A   Clear
10:55 AM 59.0 °F 42.8 °F 55% 30.14 in 10.0 mi Calm Calm - N/A   Clear
11:15 AM 60.8 °F 44.6 °F 55% 30.14 in 10.0 mi West 3.5 mph - N/A   Scattered Clouds
11:35 AM 60.8 °F 44.6 °F 55% 30.14 in 10.0 mi Calm Calm - N/A   Clear
12:15 PM 62.6 °F 44.6 °F 52% 30.13 in 10.0 mi Calm Calm - N/A   Clear
12:35 PM 62.6 °F 44.6 °F 52% 30.12 in 10.0 mi Calm Calm - N/A   Clear
12:55 PM 62.6 °F 46.4 °F 55% 30.12 in 10.0 mi West 8.1 mph - N/A   Clear
1:35 PM 62.6 °F 46.4 °F 55% 30.12 in 10.0 mi WNW 5.8 mph - N/A   Clear
1:55 PM 64.4 °F 46.4 °F 52% 30.11 in 10.0 mi NW 5.8 mph - N/A   Clear
2:35 PM 64.4 °F 48.2 °F 56% 30.12 in 10.0 mi NW 9.2 mph - N/A   Clear
2:55 PM 64.4 °F 46.4 °F 52% 30.12 in 10.0 mi NNW 10.4 mph - N/A   Clear
3:15 PM 64.4 °F 48.2 °F 56% 30.12 in 10.0 mi WNW 8.1 mph - N/A   Clear
3:35 PM 64.4 °F 48.2 °F 56% 30.12 in 10.0 mi West 9.2 mph - N/A   Scattered Clouds
3:55 PM 64.4 °F 48.2 °F 56% 30.12 in 10.0 mi SW 10.4 mph - N/A   Clear
4:15 PM 64.4 °F 46.4 °F 52% 30.11 in 10.0 mi WSW 10.4 mph 18.4 mph N/A   Scattered Clouds
4:35 PM 64.4 °F 48.2 °F 56% 30.11 in 10.0 mi NNW 6.9 mph - N/A   Scattered Clouds
4:55 PM 64.4 °F 48.2 °F 56% 30.11 in 10.0 mi WNW 9.2 mph - N/A   Clear
5:15 PM 64.4 °F 48.2 °F 56% 30.11 in 10.0 mi WNW 6.9 mph - N/A   Clear
5:35 PM 64.4 °F 48.2 °F 56% 30.10 in 10.0 mi WNW 6.9 mph - N/A   Clear
5:55 PM 64.4 °F 48.2 °F 56% 30.09 in 10.0 mi NW 8.1 mph - N/A   Clear
6:15 PM 64.4 °F 48.2 °F 56% 30.09 in 10.0 mi NW 8.1 mph - N/A   Clear
6:35 PM 64.4 °F 46.4 °F 52% 30.09 in 10.0 mi NW 4.6 mph - N/A   Clear
6:55 PM 64.4 °F 48.2 °F 56% 30.09 in 10.0 mi NW 6.9 mph - N/A   Clear
7:15 PM 62.6 °F 48.2 °F 59% 30.09 in 10.0 mi NW 6.9 mph - N/A   Clear
7:35 PM 62.6 °F 46.4 °F 55% 30.09 in 10.0 mi West 4.6 mph - N/A   Clear
7:55 PM 62.6 °F 50.0 °F 63% 30.09 in 10.0 mi NW 6.9 mph - N/A   Clear
8:15 PM 60.8 °F 50.0 °F 68% 30.09 in 10.0 mi NW 8.1 mph - N/A   Clear
8:35 PM 60.8 °F 50.0 °F 68% 30.09 in 10.0 mi NW 6.9 mph - N/A   Clear
8:55 PM 60.8 °F 50.0 °F 68% 30.08 in 10.0 mi NW 4.6 mph - N/A   Clear
9:15 PM 59.0 °F 50.0 °F 72% 30.08 in 10.0 mi NW 5.8 mph - N/A   Clear
9:35 PM 59.0 °F 50.0 °F 72% 30.08 in 10.0 mi NW 4.6 mph - N/A   Clear
9:55 PM 55.4 °F 50.0 °F 82% 30.08 in 10.0 mi West 3.5 mph - N/A   Clear
10:15 PM 55.4 °F 50.0 °F 82% 30.08 in 10.0 mi West 3.5 mph - N/A   Clear
10:35 PM 55.4 °F 50.0 °F 82% 30.08 in 10.0 mi WSW 4.6 mph - N/A   Clear
10:55 PM 55.4 °F 50.0 °F 82% 30.08 in 10.0 mi Calm Calm - N/A   Clear
11:15 PM 51.8 °F 48.2 °F 88% 30.08 in 10.0 mi South 4.6 mph - N/A   Clear
11:35 PM 51.8 °F 50.0 °F 94% 30.08 in 10.0 mi SSE 4.6 mph - N/A   Clear
11:55 PM 51.8 °F 50.0 °F 94% 30.08 in 10.0 mi Calm Calm - N/A   Clear